Location: Newark
(44.3681°N, 100.3364°W)
Time: 19:53:05
(UTC+00:00)

Explorer 7 - Visible Passes

Search period start: 27 February 2021 00:00
Search period end: 09 March 2021 00:00
Orbit: 484 x 677 km, 50.3° (Epoch: 27 February)

Date Brightness Start Highest point End Pass type
(mag) Time Alt. Az. Time Alt. Az. Time Alt. Az.
27 Feb 7.8 01:45:46 10° WNW 01:49:36 35° N 01:51:18 24° NE visible
27 Feb 9.4 03:26:30 10° WNW 03:27:36 18° WNW 03:27:36 18° WNW visible
28 Feb 7.5 01:50:24 10° WNW 01:54:18 39° N 01:55:44 28° ENE visible
28 Feb 9.5 03:31:03 10° WNW 03:32:02 17° WNW 03:32:02 17° WNW visible
01 Mar 7.2 01:54:59 10° WNW 01:58:59 47° NNE 02:00:12 34° ENE visible
01 Mar 9.6 03:35:40 10° WNW 03:36:30 15° WNW 03:36:30 15° WNW visible
02 Mar 6.8 01:59:32 10° WNW 02:03:37 60° NNE 02:04:43 41° E visible
02 Mar 9.8 03:40:23 10° WNW 03:41:01 13° W 03:41:01 13° W visible
03 Mar 6.6 02:04:04 10° WNW 02:08:11 83° NNE 02:09:16 46° ESE visible
03 Mar 9.9 03:45:21 10° W 03:45:35 11° W 03:45:35 11° W visible
04 Mar 6.9 02:08:38 10° WNW 02:12:42 67° SSW 02:13:54 41° SE visible
05 Mar 7.6 02:13:15 10° WNW 02:17:09 43° SW 02:18:37 29° SSE visible
06 Mar 8.4 02:18:01 10° WNW 02:21:31 28° SW 02:23:26 19° S visible
07 Mar 9.2 02:23:03 10° W 02:25:49 18° SW 02:28:21 11° S visible
08 Mar 9.6 02:29:05 10° WSW 02:30:03 11° SW 02:31:00 10° SW visible
